Time,TemperatureF,DewpointF,PressureIn,WindDirection,WindDirectionDegrees,WindSpeedMPH,WindSpeedGustMPH,Humidity,HourlyPrecipIn,Conditions,Clouds,dailyrainin,SoftwareType,DateUTC
2013-04-11 00:00:00,34.6,25.1,30.12,NW,326,2.0,3.0,68,0.00,,---,0.16,VWS V14.01,2013-04-11 04:00:00,
2013-04-11 00:05:00,34.4,25.3,30.12,NW,326,3.0,3.0,69,0.00,,---,0.00,VWS V14.01,2013-04-11 04:05:00,
2013-04-11 00:10:00,34.4,25.3,30.12,NNW,332,3.0,3.0,69,0.00,,---,0.00,VWS V14.01,2013-04-11 04:10:00,
2013-04-11 00:15:00,34.4,25.0,30.10,NNE,20,4.0,6.0,68,0.00,,---,0.00,VWS V14.01,2013-04-11 04:15:00,
2013-04-11 00:20:00,34.4,25.0,30.10,NNE,20,3.0,6.0,68,0.00,,---,0.00,VWS V14.01,2013-04-11 04:20:00,
2013-04-11 00:25:00,34.4,23.9,30.10,NNE,14,4.0,6.0,65,0.00,,---,0.00,VWS V14.01,2013-04-11 04:25:00,
2013-04-11 00:30:00,34.4,23.5,30.09,NNE,18,3.0,3.0,64,0.00,,---,0.00,VWS V14.01,2013-04-11 04:30:00,
2013-04-11 00:35:00,34.4,23.9,30.09,NNE,13,2.0,7.0,65,0.00,,---,0.00,VWS V14.01,2013-04-11 04:35:00,
2013-04-11 00:40:00,34.3,24.1,30.09,NNE,13,1.0,7.0,66,0.00,,---,0.00,VWS V14.01,2013-04-11 04:40:00,
2013-04-11 00:45:00,34.1,24.0,30.10,North,7,1.0,7.0,66,0.00,,---,0.00,VWS V14.01,2013-04-11 04:45:00,
2013-04-11 00:50:00,34.0,23.9,30.10,NE,38,0.0,7.0,66,0.00,,---,0.00,VWS V14.01,2013-04-11 04:50:00,
2013-04-11 00:55:00,33.8,23.7,30.10,NE,38,0.0,7.0,66,0.00,,---,0.00,VWS V14.01,2013-04-11 04:55:00,
2013-04-11 01:00:00,33.7,23.6,30.10,NE,38,0.0,1.0,66,0.00,,---,0.00,VWS V14.01,2013-04-11 05:00:00,
2013-04-11 01:05:00,33.8,23.3,30.10,NE,37,2.0,3.0,65,0.00,,---,0.00,VWS V14.01,2013-04-11 05:05:00,
2013-04-11 01:11:00,33.8,23.3,30.10,NE,37,1.0,3.0,65,0.00,,---,0.00,VWS V14.01,2013-04-11 05:11:00,
2013-04-11 01:16:00,33.8,23.3,30.10,NE,40,4.0,6.0,65,0.00,,---,0.00,VWS V14.01,2013-04-11 05:16:00,
2013-04-11 01:21:00,33.8,23.3,30.10,NNE,28,1.0,6.0,65,0.00,,---,0.00,VWS V14.01,2013-04-11 05:21:00,
2013-04-11 01:26:00,33.7,23.2,30.10,NNE,30,1.0,6.0,65,0.00,,---,0.00,VWS V14.01,2013-04-11 05:26:00,
2013-04-11 01:30:00,33.7,23.2,30.10,NE,52,2.0,6.0,65,0.00,,---,0.00,VWS V14.01,2013-04-11 05:30:00,
2013-04-11 01:31:00,33.7,22.8,30.10,NNE,14,0.0,3.0,64,0.00,,---,0.00,VWS V14.01,2013-04-11 05:31:00,
2013-04-11 01:36:00,33.7,23.2,30.10,NNE,27,2.0,5.0,65,0.00,,---,0.00,VWS V14.01,2013-04-11 05:36:00,
2013-04-11 01:41:00,33.7,23.9,30.10,NNE,25,7.0,8.0,67,0.00,,---,0.00,VWS V14.01,2013-04-11 05:41:00,
2013-04-11 01:46:00,33.5,23.4,30.10,NNE,24,4.0,8.0,66,0.00,,---,0.00,VWS V14.01,2013-04-11 05:46:00,
2013-04-11 01:51:00,33.5,23.7,30.10,NNE,24,4.0,8.0,67,0.00,,---,0.00,VWS V14.01,2013-04-11 05:51:00,
2013-04-11 01:56:00,33.5,23.7,30.10,NNE,18,2.0,8.0,67,0.00,,---,0.00,VWS V14.01,2013-04-11 05:56:00,
2013-04-11 02:00:00,33.5,24.1,30.09,NNE,20,2.0,8.0,68,0.00,,---,0.00,VWS V14.01,2013-04-11 06:00:00,
2013-04-11 02:01:00,33.4,24.0,30.09,North,4,2.0,5.0,68,0.00,,---,0.00,VWS V14.01,2013-04-11 06:01:00,
2013-04-11 02:06:00,33.4,23.6,30.09,NE,41,5.0,6.0,67,0.00,,---,0.00,VWS V14.01,2013-04-11 06:06:00,
2013-04-11 02:11:00,33.4,23.6,30.09,NE,38,3.0,7.0,67,0.00,,---,0.00,VWS V14.01,2013-04-11 06:11:00,
2013-04-11 02:16:00,33.5,23.4,30.06,NE,34,6.0,7.0,66,0.00,,---,0.00,VWS V14.01,2013-04-11 06:16:00,
2013-04-11 02:21:00,33.8,23.7,30.06,ENE,66,5.0,10.0,66,0.00,,---,0.00,VWS V14.01,2013-04-11 06:21:00,
2013-04-11 02:26:00,34.0,23.9,30.06,NNE,30,8.0,10.0,66,0.00,,---,0.00,VWS V14.01,2013-04-11 06:26:00,
2013-04-11 02:30:00,34.1,23.6,30.05,NNE,21,3.0,11.0,65,0.00,,---,0.00,VWS V14.01,2013-04-11 06:30:00,
2013-04-11 02:32:00,34.3,23.8,30.05,NNE,25,8.0,13.0,65,0.00,,---,0.00,VWS V14.01,2013-04-11 06:32:00,
2013-04-11 02:37:00,34.6,23.7,30.05,ENE,68,8.0,14.0,64,0.00,,---,0.00,VWS V14.01,2013-04-11 06:37:00,
2013-04-11 02:42:00,34.9,23.6,30.05,NE,48,9.0,14.0,63,0.00,,---,0.00,VWS V14.01,2013-04-11 06:42:00,
2013-04-11 02:47:00,35.0,23.3,30.04,NNE,30,5.0,14.0,62,0.00,,---,0.00,VWS V14.01,2013-04-11 06:47:00,
2013-04-11 02:52:00,35.2,23.1,30.04,North,359,6.0,14.0,61,0.00,,---,0.00,VWS V14.01,2013-04-11 06:52:00,
2013-04-11 02:57:00,35.3,23.2,30.04,East,90,3.0,14.0,61,0.00,,---,0.00,VWS V14.01,2013-04-11 06:57:00,
2013-04-11 03:00:00,35.5,23.4,30.04,ENE,61,5.0,16.0,61,0.00,,---,0.00,VWS V14.01,2013-04-11 07:00:00,
2013-04-11 03:02:00,35.5,23.0,30.04,East,79,10.0,12.0,60,0.00,,---,0.00,VWS V14.01,2013-04-11 07:02:00,
2013-04-11 03:07:00,35.6,22.7,30.04,East,83,10.0,12.0,59,0.00,,---,0.00,VWS V14.01,2013-04-11 07:07:00,
2013-04-11 03:12:00,35.8,22.9,30.04,ENE,68,7.0,14.0,59,0.00,,---,0.00,VWS V14.01,2013-04-11 07:12:00,
2013-04-11 03:17:00,35.8,22.9,30.04,ENE,62,8.0,14.0,59,0.00,,---,0.00,VWS V14.01,2013-04-11 07:17:00,
2013-04-11 03:22:00,35.9,22.6,30.04,NE,44,4.0,16.0,58,0.00,,---,0.00,VWS V14.01,2013-04-11 07:22:00,
2013-04-11 03:27:00,35.9,22.6,30.04,NE,35,5.0,16.0,58,0.00,,---,0.00,VWS V14.01,2013-04-11 07:27:00,
2013-04-11 03:30:00,35.9,23.0,30.03,ENE,59,10.0,16.0,59,0.00,,---,0.00,VWS V14.01,2013-04-11 07:30:00,
2013-04-11 03:32:00,35.9,22.6,30.03,East,85,2.0,10.0,58,0.00,,---,0.00,VWS V14.01,2013-04-11 07:32:00,
2013-04-11 03:37:00,35.9,22.2,30.03,NE,55,7.0,14.0,57,0.00,,---,0.00,VWS V14.01,2013-04-11 07:37:00,
2013-04-11 03:42:00,35.8,22.5,30.03,ESE,119,3.0,14.0,58,0.00,,---,0.00,VWS V14.01,2013-04-11 07:42:00,
2013-04-11 03:47:00,35.8,22.1,30.05,ENE,68,7.0,14.0,57,0.00,,---,0.00,VWS V14.01,2013-04-11 07:47:00,
2013-04-11 03:52:00,35.8,22.1,30.05,NE,41,2.0,14.0,57,0.00,,---,0.00,VWS V14.01,2013-04-11 07:52:00,
2013-04-11 03:57:00,35.8,22.1,30.05,NE,55,8.0,14.0,57,0.00,,---,0.00,VWS V14.01,2013-04-11 07:57:00,
2013-04-11 04:00:00,35.6,22.3,30.05,East,80,10.0,14.0,58,0.00,,---,0.00,VWS V14.01,2013-04-11 08:00:00,
2013-04-11 04:03:00,35.6,21.9,30.05,East,79,2.0,10.0,57,0.00,,---,0.00,VWS V14.01,2013-04-11 08:03:00,
2013-04-11 04:08:00,35.5,22.2,30.05,NE,41,3.0,10.0,58,0.00,,---,0.00,VWS V14.01,2013-04-11 08:08:00,
2013-04-11 04:13:00,35.5,22.6,30.05,ENE,68,2.0,12.0,59,0.00,,---,0.00,VWS V14.01,2013-04-11 08:13:00,
2013-04-11 04:18:00,35.3,22.4,30.06,East,82,1.0,12.0,59,0.00,,---,0.00,VWS V14.01,2013-04-11 08:18:00,
2013-04-11 04:23:00,35.2,22.3,30.06,ENE,72,5.0,12.0,59,0.00,,---,0.00,VWS V14.01,2013-04-11 08:23:00,
2013-04-11 04:28:00,35.2,22.3,30.06,ESE,103,0.0,12.0,59,0.00,,---,0.00,VWS V14.01,2013-04-11 08:28:00,
2013-04-11 04:30:00,35.2,22.3,30.06,NE,35,5.0,12.0,59,0.00,,---,0.00,VWS V14.01,2013-04-11 08:30:00,
2013-04-11 04:33:00,35.0,22.5,30.06,ENE,58,3.0,8.0,60,0.00,,---,0.00,VWS V14.01,2013-04-11 08:33:00,
2013-04-11 04:38:00,34.9,22.4,30.06,East,85,0.0,8.0,60,0.00,,---,0.00,VWS V14.01,2013-04-11 08:38:00,
2013-04-11 04:43:00,34.9,22.8,30.06,NE,44,2.0,11.0,61,0.00,,---,0.00,VWS V14.01,2013-04-11 08:43:00,
2013-04-11 04:48:00,34.7,23.0,30.07,NNE,24,1.0,11.0,62,0.00,,---,0.00,VWS V14.01,2013-04-11 08:48:00,
2013-04-11 04:53:00,34.6,22.9,30.07,ENE,73,3.0,11.0,62,0.00,,---,0.00,VWS V14.01,2013-04-11 08:53:00,
2013-04-11 04:58:00,34.6,23.7,30.07,NE,37,6.0,11.0,64,0.00,,---,0.00,VWS V14.01,2013-04-11 08:58:00,
2013-04-11 05:00:00,34.6,23.3,30.08,NNE,28,7.0,11.0,63,0.00,,---,0.00,VWS V14.01,2013-04-11 09:00:00,
2013-04-11 05:03:00,34.6,22.9,30.08,NNE,27,8.0,8.0,62,0.00,,---,0.00,VWS V14.01,2013-04-11 09:03:00,
2013-04-11 05:08:00,34.4,23.1,30.08,NE,49,3.0,10.0,63,0.00,,---,0.00,VWS V14.01,2013-04-11 09:08:00,
2013-04-11 05:13:00,34.3,23.4,30.08,NE,47,3.0,10.0,64,0.00,,---,0.00,VWS V14.01,2013-04-11 09:13:00,
2013-04-11 05:18:00,34.3,23.0,30.09,NE,38,5.0,10.0,63,0.00,,---,0.00,VWS V14.01,2013-04-11 09:18:00,
2013-04-11 05:23:00,34.3,22.6,30.09,NNE,30,5.0,11.0,62,0.00,,---,0.00,VWS V14.01,2013-04-11 09:23:00,
2013-04-11 05:28:00,34.1,22.5,30.09,NE,38,6.0,11.0,62,0.00,,---,0.00,VWS V14.01,2013-04-11 09:28:00,
2013-04-11 05:30:00,34.1,22.8,30.08,ENE,69,3.0,11.0,63,0.00,,---,0.00,VWS V14.01,2013-04-11 09:30:00,
2013-04-11 05:33:00,34.1,22.8,30.08,NE,47,5.0,8.0,63,0.00,,---,0.00,VWS V14.01,2013-04-11 09:33:00,
2013-04-11 05:38:00,34.0,22.4,30.08,NNE,16,7.0,10.0,62,0.00,,---,0.00,VWS V14.01,2013-04-11 09:38:00,
2013-04-11 05:43:00,34.0,22.4,30.08,NE,47,11.0,11.0,62,0.00,,---,0.00,VWS V14.01,2013-04-11 09:43:00,
2013-04-11 05:48:00,33.8,22.5,30.07,NNE,20,5.0,12.0,63,0.00,,---,0.00,VWS V14.01,2013-04-11 09:48:00,
2013-04-11 05:53:00,33.8,22.2,30.07,NNE,17,2.0,12.0,62,0.00,,---,0.00,VWS V14.01,2013-04-11 09:53:00,
2013-04-11 05:58:00,33.8,22.2,30.07,ENE,66,3.0,12.0,62,0.00,,---,0.00,VWS V14.01,2013-04-11 09:58:00,
2013-04-11 06:00:00,33.8,22.2,30.06,NE,40,3.0,12.0,62,0.00,,---,0.00,VWS V14.01,2013-04-11 10:00:00,
2013-04-11 06:03:00,33.7,22.5,30.06,ENE,71,3.0,13.0,63,0.00,,---,0.00,VWS V14.01,2013-04-11 10:03:00,
2013-04-11 06:08:00,33.5,22.3,30.06,NE,42,7.0,13.0,63,0.00,,---,0.00,VWS V14.01,2013-04-11 10:08:00,
2013-04-11 06:13:00,33.5,22.6,30.06,ESE,116,5.0,13.0,64,0.00,,---,0.00,VWS V14.01,2013-04-11 10:13:00,
2013-04-11 06:18:00,33.4,22.2,30.05,East,79,6.0,17.0,63,0.00,,---,0.00,VWS V14.01,2013-04-11 10:18:00,
2013-04-11 06:23:00,33.2,22.4,30.05,ENE,66,10.0,17.0,64,0.00,,---,0.00,VWS V14.01,2013-04-11 10:23:00,
2013-04-11 06:28:00,33.2,22.4,30.05,North,3,6.0,17.0,64,0.00,,---,0.00,VWS V14.01,2013-04-11 10:28:00,
2013-04-11 06:30:00,33.1,22.3,30.04,East,80,11.0,17.0,64,0.00,,---,0.00,VWS V14.01,2013-04-11 10:30:00,
2013-04-11 06:33:00,33.1,22.3,30.04,NE,51,8.0,13.0,64,0.00,,---,0.00,VWS V14.01,2013-04-11 10:33:00,
2013-04-11 06:38:00,33.1,22.3,30.04,NE,45,11.0,18.0,64,0.00,,---,0.00,VWS V14.01,2013-04-11 10:38:00,
2013-04-11 06:43:00,32.9,22.4,30.04,NNE,21,6.0,18.0,65,0.00,,---,0.00,VWS V14.01,2013-04-11 10:43:00,
2013-04-11 06:48:00,32.8,22.3,30.01,North,1,11.0,18.0,65,0.00,,---,0.00,VWS V14.01,2013-04-11 10:48:00,
2013-04-11 06:53:00,32.8,22.0,30.01,ENE,69,4.0,18.0,64,0.00,,---,0.00,VWS V14.01,2013-04-11 10:53:00,
2013-04-11 06:58:00,32.8,22.0,30.01,NNE,17,6.0,18.0,64,0.00,,---,0.00,VWS V14.01,2013-04-11 10:58:00,
2013-04-11 07:00:00,32.8,22.0,30.01,NNE,25,9.0,18.0,64,0.00,,---,0.00,VWS V14.01,2013-04-11 11:00:00,
2013-04-11 07:03:00,32.7,22.2,30.01,ENE,58,9.0,20.0,65,0.00,,---,0.00,VWS V14.01,2013-04-11 11:03:00,
2013-04-11 07:08:00,32.7,22.2,30.01,NE,34,6.0,20.0,65,0.00,,---,0.00,VWS V14.01,2013-04-11 11:08:00,
2013-04-11 07:13:00,32.5,22.4,30.01,NE,41,11.0,21.0,66,0.00,,---,0.00,VWS V14.01,2013-04-11 11:13:00,
2013-04-11 07:18:00,32.4,22.0,30.02,NE,34,12.0,21.0,65,0.00,,---,0.00,VWS V14.01,2013-04-11 11:18:00,
2013-04-11 07:23:00,32.2,22.1,30.02,NNE,24,10.0,21.0,66,0.00,,---,0.00,VWS V14.01,2013-04-11 11:23:00,
2013-04-11 07:28:00,32.1,22.0,30.02,NE,42,5.0,21.0,66,0.00,,---,0.00,VWS V14.01,2013-04-11 11:28:00,
2013-04-11 07:30:00,32.1,22.0,30.01,NNE,31,11.0,21.0,66,0.00,,---,0.00,VWS V14.01,2013-04-11 11:30:00,
2013-04-11 07:33:00,32.1,21.7,30.01,NE,47,15.0,16.0,65,0.00,,---,0.00,VWS V14.01,2013-04-11 11:33:00,
2013-04-11 07:38:00,31.9,21.5,30.01,NNE,23,12.0,16.0,65,0.00,,---,0.00,VWS V14.01,2013-04-11 11:38:00,
2013-04-11 07:44:00,31.9,21.5,30.01,NNE,20,2.0,16.0,65,0.00,,---,0.00,VWS V14.01,2013-04-11 11:44:00,
2013-04-11 07:49:00,31.9,21.5,30.05,NNE,25,8.0,16.0,65,0.00,,---,0.00,VWS V14.01,2013-04-11 11:49:00,
2013-04-11 07:54:00,31.9,21.5,30.05,North,7,5.0,16.0,65,0.00,,---,0.00,VWS V14.01,2013-04-11 11:54:00,
2013-04-11 07:59:00,32.1,21.3,30.05,ENE,76,1.0,16.0,64,0.00,,---,0.00,VWS V14.01,2013-04-11 11:59:00,
2013-04-11 08:00:00,32.1,21.3,30.09,East,85,5.0,16.0,64,0.00,,---,0.00,VWS V14.01,2013-04-11 12:00:00,
2013-04-11 08:04:00,32.2,21.4,30.09,ENE,75,1.0,7.0,64,0.00,,---,0.00,VWS V14.01,2013-04-11 12:04:00,
2013-04-11 08:09:00,32.2,21.8,30.09,NNE,27,12.0,12.0,65,0.00,,---,0.00,VWS V14.01,2013-04-11 12:09:00,
2013-04-11 08:14:00,32.2,21.4,30.09,NNE,30,10.0,12.0,64,0.00,,---,0.00,VWS V14.01,2013-04-11 12:14:00,
2013-04-11 08:19:00,32.2,21.8,30.11,East,92,5.0,12.0,65,0.00,,---,0.00,VWS V14.01,2013-04-11 12:19:00,
2013-04-11 08:24:00,32.2,21.4,30.11,NE,54,5.0,12.0,64,0.00,,---,0.00,VWS V14.01,2013-04-11 12:24:00,
2013-04-11 08:29:00,32.2,21.0,30.11,NE,51,6.0,12.0,63,0.00,,---,0.00,VWS V14.01,2013-04-11 12:29:00,
2013-04-11 08:30:00,32.2,21.0,30.09,NE,41,7.0,12.0,63,0.00,,---,0.00,VWS V14.01,2013-04-11 12:30:00,
2013-04-11 08:34:00,32.2,21.4,30.09,NE,34,2.0,9.0,64,0.00,,---,0.00,VWS V14.01,2013-04-11 12:34:00,
2013-04-11 08:39:00,32.1,21.3,30.09,NE,42,8.0,10.0,64,0.00,,---,0.00,VWS V14.01,2013-04-11 12:39:00,
2013-04-11 08:44:00,32.1,21.3,30.09,ENE,59,6.0,13.0,64,0.00,,---,0.00,VWS V14.01,2013-04-11 12:44:00,
2013-04-11 08:49:00,32.1,21.3,30.10,NE,41,8.0,13.0,64,0.00,,---,0.00,VWS V14.01,2013-04-11 12:49:00,
2013-04-11 08:54:00,32.1,20.9,30.10,NE,38,7.0,13.0,63,0.00,,---,0.00,VWS V14.01,2013-04-11 12:54:00,
2013-04-11 08:59:00,32.1,20.9,30.10,NNE,23,11.0,16.0,63,0.00,,---,0.00,VWS V14.01,2013-04-11 12:59:00,
2013-04-11 09:00:00,32.1,20.9,30.08,NE,55,12.0,16.0,63,0.00,,---,0.00,VWS V14.01,2013-04-11 13:00:00,
2013-04-11 09:04:00,32.1,21.7,30.08,ENE,73,12.0,13.0,65,0.00,,---,0.00,VWS V14.01,2013-04-11 13:04:00,
2013-04-11 09:09:00,32.1,21.3,30.08,NE,52,6.0,16.0,64,0.00,,---,0.00,VWS V14.01,2013-04-11 13:09:00,
2013-04-11 09:14:00,31.9,20.8,30.08,NE,51,8.0,16.0,63,0.00,,---,0.00,VWS V14.01,2013-04-11 13:14:00,
2013-04-11 09:19:00,31.9,20.4,30.09,ENE,66,12.0,16.0,62,0.00,,---,0.00,VWS V14.01,2013-04-11 13:19:00,
2013-04-11 09:24:00,31.9,20.8,30.09,ENE,73,5.0,16.0,63,0.00,,---,0.00,VWS V14.01,2013-04-11 13:24:00,
2013-04-11 09:29:00,31.9,20.8,30.09,North,7,10.0,16.0,63,0.00,,---,0.00,VWS V14.01,2013-04-11 13:29:00,
2013-04-11 09:30:00,31.9,20.4,30.07,ENE,69,8.0,16.0,62,0.00,,---,0.00,VWS V14.01,2013-04-11 13:30:00,
2013-04-11 09:34:00,31.9,20.8,30.07,ENE,73,12.0,12.0,63,0.00,,---,0.00,VWS V14.01,2013-04-11 13:34:00,
2013-04-11 09:39:00,31.8,20.3,30.07,ENE,73,7.0,17.0,62,0.00,,---,0.00,VWS V14.01,2013-04-11 13:39:00,
2013-04-11 09:44:00,31.8,20.7,30.07,East,79,11.0,17.0,63,0.00,,---,0.00,VWS V14.01,2013-04-11 13:44:00,
2013-04-11 09:49:00,31.6,20.5,30.05,NE,45,3.0,17.0,63,0.00,,---,0.00,VWS V14.01,2013-04-11 13:49:00,
2013-04-11 09:54:00,31.6,20.8,30.05,NNE,21,11.0,17.0,64,0.00,,---,0.00,VWS V14.01,2013-04-11 13:54:00,
2013-04-11 09:59:00,31.6,20.5,30.05,ENE,75,16.0,20.0,63,0.00,,---,0.00,VWS V14.01,2013-04-11 13:59:00,
2013-04-11 10:00:00,31.6,20.5,30.04,ENE,75,11.0,20.0,63,0.00,,---,0.00,VWS V14.01,2013-04-11 14:00:00,
2013-04-11 10:04:00,31.6,20.5,30.04,East,79,8.0,14.0,63,0.00,,---,0.00,VWS V14.01,2013-04-11 14:04:00,
2013-04-11 10:09:00,31.6,20.5,30.04,North,359,1.0,14.0,63,0.00,,---,0.00,VWS V14.01,2013-04-11 14:09:00,
2013-04-11 10:14:00,31.6,20.1,30.04,NNE,31,11.0,14.0,62,0.00,,---,0.00,VWS V14.01,2013-04-11 14:14:00,
2013-04-11 10:19:00,31.6,19.7,30.03,NE,52,5.0,15.0,61,0.00,,---,0.00,VWS V14.01,2013-04-11 14:19:00,
2013-04-11 10:24:00,31.8,19.9,30.03,East,96,11.0,16.0,61,0.00,,---,0.00,VWS V14.01,2013-04-11 14:24:00,
2013-04-11 10:29:00,31.8,19.5,30.03,North,353,7.0,16.0,60,0.00,,---,0.00,VWS V14.01,2013-04-11 14:29:00,
2013-04-11 10:30:00,31.8,19.5,30.04,ENE,61,8.0,16.0,60,0.00,,---,0.00,VWS V14.01,2013-04-11 14:30:00,
2013-04-11 10:34:00,31.9,20.0,30.04,ENE,62,7.0,12.0,61,0.00,,---,0.00,VWS V14.01,2013-04-11 14:34:00,
2013-04-11 10:39:00,32.1,20.6,30.04,East,79,7.0,13.0,62,0.00,,---,0.00,VWS V14.01,2013-04-11 14:39:00,
2013-04-11 10:44:00,32.2,19.9,30.05,ESE,114,10.0,16.0,60,0.00,,---,0.00,VWS V14.01,2013-04-11 14:44:00,
2013-04-11 10:49:00,32.4,20.5,30.05,ENE,58,0.0,16.0,61,0.00,,---,0.00,VWS V14.01,2013-04-11 14:49:00,
2013-04-11 10:54:00,32.4,20.1,30.05,North,11,2.0,16.0,60,0.00,,---,0.00,VWS V14.01,2013-04-11 14:54:00,
2013-04-11 10:59:00,32.4,20.5,30.04,NE,47,12.0,16.0,61,0.00,,---,0.00,VWS V14.01,2013-04-11 14:59:00,
2013-04-11 11:00:00,32.4,20.5,30.04,NE,38,6.0,16.0,61,0.00,,---,0.00,VWS V14.01,2013-04-11 15:00:00,
2013-04-11 11:04:00,32.7,21.1,30.04,NNE,32,8.0,18.0,62,0.00,,---,0.00,VWS V14.01,2013-04-11 15:04:00,
2013-04-11 11:09:00,32.9,21.3,30.04,ENE,65,2.0,18.0,62,0.00,,---,0.00,VWS V14.01,2013-04-11 15:09:00,
2013-04-11 11:14:00,33.2,21.6,30.04,North,6,10.0,18.0,62,0.00,,---,0.00,VWS V14.01,2013-04-11 15:14:00,
2013-04-11 11:19:00,32.9,20.2,30.04,NNE,31,10.0,18.0,59,0.00,,---,0.00,VWS V14.01,2013-04-11 15:19:00,
2013-04-11 11:24:00,33.1,20.4,30.04,NE,40,8.0,18.0,59,0.00,,---,0.00,VWS V14.01,2013-04-11 15:24:00,
2013-04-11 11:29:00,33.1,20.4,30.04,NE,41,16.0,18.0,59,0.00,,---,0.00,VWS V14.01,2013-04-11 15:29:00,
2013-04-11 11:30:00,33.1,20.3,30.04,ENE,59,7.0,18.0,59,0.00,,---,0.00,VWS V14.01,2013-04-11 15:30:00,
2013-04-11 11:34:00,32.9,20.5,30.04,NE,40,5.0,14.0,60,0.00,,---,0.00,VWS V14.01,2013-04-11 15:34:00,
2013-04-11 11:40:00,33.1,19.9,30.04,NE,51,1.0,14.0,58,0.00,,---,0.00,VWS V14.01,2013-04-11 15:40:00,
2013-04-11 12:00:00,32.4,20.5,30.04,NE,38,6.0,16.0,61,0.00,,---,0.00,VWS V14.01,2013-04-11 16:00:00,
2013-04-11 12:30:00,33.1,20.3,30.04,ENE,59,7.0,18.0,59,0.00,,---,0.00,VWS V14.01,2013-04-11 16:30:00,
2013-04-11 16:21:00,31.8,19.9,29.96,East,86,1.0,1.0,61,0.00,,---,0.00,VWS V14.01,2013-04-11 20:21:00,
2013-04-11 16:26:00,31.8,19.1,29.96,ESE,106,3.0,13.0,59,0.00,,---,0.00,VWS V14.01,2013-04-11 20:26:00,
2013-04-11 16:31:00,31.9,19.6,29.95,NNE,32,6.0,6.0,60,0.00,,---,0.00,VWS V14.01,2013-04-11 20:31:00,
2013-04-11 16:36:00,31.9,19.6,29.95,NE,40,7.0,14.0,60,0.00,,---,0.00,VWS V14.01,2013-04-11 20:36:00,
2013-04-11 16:41:00,31.9,20.0,29.95,East,95,10.0,14.0,61,0.00,,---,0.00,VWS V14.01,2013-04-11 20:41:00,
2013-04-11 16:46:00,31.9,19.6,29.95,East,95,4.0,14.0,60,0.00,,---,0.00,VWS V14.01,2013-04-11 20:46:00,
2013-04-11 16:51:00,31.9,19.6,29.95,NE,55,12.0,17.0,60,0.00,,---,0.00,VWS V14.01,2013-04-11 20:51:00,
2013-04-11 16:56:00,32.1,19.8,29.95,ENE,71,5.0,22.0,60,0.00,,---,0.00,VWS V14.01,2013-04-11 20:56:00,
2013-04-11 17:02:00,32.1,19.0,29.96,East,79,6.0,10.0,58,0.00,,---,0.00,VWS V14.01,2013-04-11 21:02:00,
2013-04-11 17:07:00,32.2,19.1,29.96,NNE,31,10.0,10.0,58,0.00,,---,0.00,VWS V14.01,2013-04-11 21:07:00,
2013-04-11 17:12:00,32.2,19.5,29.96,ENE,72,3.0,10.0,59,0.00,,---,0.00,VWS V14.01,2013-04-11 21:12:00,
2013-04-11 17:17:00,32.1,19.0,29.98,NE,35,2.0,13.0,58,0.00,,---,0.00,VWS V14.01,2013-04-11 21:17:00,
2013-04-11 17:22:00,32.1,19.0,29.98,SE,130,6.0,16.0,58,0.00,,---,0.00,VWS V14.01,2013-04-11 21:22:00,
2013-04-11 17:27:00,31.9,19.6,29.98,ENE,61,4.0,16.0,60,0.00,,---,0.00,VWS V14.01,2013-04-11 21:27:00,
2013-04-11 17:30:00,31.9,20.0,29.95,East,90,6.0,13.0,61,0.00,,---,0.00,VWS V14.01,2013-04-11 21:30:00,
2013-04-11 17:32:00,31.5,20.0,29.97,ENE,68,6.0,11.0,62,0.00,,---,0.00,VWS V14.01,2013-04-11 21:32:00,
2013-04-11 17:37:00,31.2,19.7,29.97,ENE,58,5.0,17.0,62,0.00,,---,0.00,VWS V14.01,2013-04-11 21:37:00,
2013-04-11 17:42:00,31.0,22.0,29.97,ENE,76,3.0,17.0,69,0.00,,---,0.00,VWS V14.01,2013-04-11 21:42:00,
2013-04-11 17:47:00,30.7,22.8,29.95,SE,140,2.0,17.0,72,0.00,,---,0.00,VWS V14.01,2013-04-11 21:47:00,
2013-04-11 17:52:00,30.6,23.6,29.95,SE,124,6.0,17.0,75,0.00,,---,0.00,VWS V14.01,2013-04-11 21:52:00,
2013-04-11 17:57:00,30.3,23.3,29.95,ENE,71,4.0,17.0,75,0.00,,---,0.00,VWS V14.01,2013-04-11 21:57:00,
2013-04-11 18:00:00,32.1,19.0,29.96,NE,45,10.0,22.0,58,0.00,,---,0.00,VWS V14.01,2013-04-11 22:00:00,
2013-04-11 18:02:00,30.3,23.7,29.94,NE,44,5.0,6.0,76,0.00,,---,0.00,VWS V14.01,2013-04-11 22:02:00,
2013-04-11 18:07:00,30.1,24.1,29.94,NE,56,4.0,6.0,78,0.00,,---,0.00,VWS V14.01,2013-04-11 22:07:00,
2013-04-11 18:12:00,30.0,24.0,29.94,NNE,20,6.0,14.0,78,0.00,,---,0.00,VWS V14.01,2013-04-11 22:12:00,
2013-04-11 18:17:00,30.0,24.3,29.93,East,93,6.0,15.0,79,0.00,,---,0.00,VWS V14.01,2013-04-11 22:17:00,
2013-04-11 18:22:00,29.8,24.7,29.93,NNE,23,12.0,15.0,81,0.00,,---,0.00,VWS V14.01,2013-04-11 22:22:00,
2013-04-11 18:27:00,29.8,24.7,29.93,NE,41,8.0,15.0,81,0.00,,---,0.00,VWS V14.01,2013-04-11 22:27:00,
2013-04-11 18:30:00,31.6,20.1,29.97,ENE,61,11.0,16.0,62,0.00,,---,0.00,VWS V14.01,2013-04-11 22:30:00,
2013-04-11 18:32:00,29.8,24.7,29.93,North,0,1.0,13.0,81,0.00,,---,0.00,VWS V14.01,2013-04-11 22:32:00,
2013-04-11 18:37:00,29.8,24.7,29.93,NE,48,7.0,14.0,81,0.00,,---,0.00,VWS V14.01,2013-04-11 22:37:00,
2013-04-11 18:42:00,29.8,24.1,29.93,ENE,68,3.0,18.0,79,0.00,,---,0.00,VWS V14.01,2013-04-11 22:42:00,
2013-04-11 18:47:00,29.8,24.1,29.94,NE,55,4.0,18.0,79,0.00,,---,0.00,VWS V14.01,2013-04-11 22:47:00,
2013-04-11 18:52:00,29.8,24.1,29.94,ESE,119,5.0,18.0,79,0.00,,---,0.00,VWS V14.01,2013-04-11 22:52:00,
2013-04-11 18:57:00,29.8,24.1,29.94,East,79,1.0,18.0,79,0.00,,---,0.00,VWS V14.01,2013-04-11 22:57:00,
2013-04-11 19:00:00,30.3,23.7,29.94,NE,47,2.0,17.0,76,0.00,,---,0.00,VWS V14.01,2013-04-11 23:00:00,
2013-04-11 19:02:00,29.8,24.1,29.94,ENE,73,0.0,6.0,79,0.00,,---,0.00,VWS V14.01,2013-04-11 23:02:00,
2013-04-11 19:07:00,29.8,24.1,29.94,NE,35,12.0,12.0,79,0.00,,---,0.00,VWS V14.01,2013-04-11 23:07:00,
2013-04-11 19:12:00,29.7,24.3,29.94,ENE,65,7.0,12.0,80,0.00,,---,0.00,VWS V14.01,2013-04-11 23:12:00,
2013-04-11 19:17:00,29.7,24.0,29.93,SE,134,5.0,13.0,79,0.00,,---,0.00,VWS V14.01,2013-04-11 23:17:00,
2013-04-11 19:22:00,29.7,24.3,29.93,East,90,3.0,13.0,80,0.00,,---,0.00,VWS V14.01,2013-04-11 23:22:00,
2013-04-11 19:27:00,29.7,24.6,29.93,East,90,4.0,13.0,81,0.00,,---,0.00,VWS V14.01,2013-04-11 23:27:00,
2013-04-11 19:30:00,29.8,25.0,29.93,East,86,13.0,15.0,82,0.00,,---,0.00,VWS V14.01,2013-04-11 23:30:00,
2013-04-11 19:32:00,29.7,24.6,29.93,ESE,112,2.0,12.0,81,0.00,,---,0.00,VWS V14.01,2013-04-11 23:32:00,
2013-04-11 19:37:00,29.5,24.7,29.93,East,97,5.0,14.0,82,0.00,,---,0.00,VWS V14.01,2013-04-11 23:37:00,
2013-04-11 19:43:00,29.4,24.9,29.93,NE,49,10.0,14.0,83,0.00,,---,0.00,VWS V14.01,2013-04-11 23:43:00,
2013-04-11 19:48:00,29.4,24.9,29.92,ENE,75,5.0,17.0,83,0.00,,---,0.00,VWS V14.01,2013-04-11 23:48:00,
2013-04-11 19:53:00,29.4,24.9,29.92,ENE,75,10.0,17.0,83,0.00,,---,0.00,VWS V14.01,2013-04-11 23:53:00,
2013-04-11 19:58:00,29.3,25.1,29.92,East,86,4.0,17.0,84,0.00,,---,0.00,VWS V14.01,2013-04-11 23:58:00,
2013-04-11 20:00:00,29.8,24.1,29.94,NE,40,6.0,18.0,79,0.00,,---,0.00,VWS V14.01,2013-04-12 00:00:00,
2013-04-11 20:03:00,29.3,25.1,29.90,ESE,104,11.0,12.0,84,0.00,,---,0.00,VWS V14.01,2013-04-12 00:03:00,
2013-04-11 20:08:00,29.3,25.1,29.90,East,95,10.0,12.0,84,0.00,,---,0.00,VWS V14.01,2013-04-12 00:08:00,
2013-04-11 20:13:00,29.3,25.1,29.90,ENE,59,10.0,17.0,84,0.00,,---,0.00,VWS V14.01,2013-04-12 00:13:00,
2013-04-11 20:18:00,29.3,25.1,29.89,ENE,69,9.0,17.0,84,0.00,,---,0.00,VWS V14.01,2013-04-12 00:18:00,
2013-04-11 20:23:00,29.4,25.5,29.89,NW,305,1.0,18.0,85,0.00,,---,0.00,VWS V14.01,2013-04-12 00:23:00,
2013-04-11 20:28:00,29.3,25.4,29.89,NE,47,6.0,18.0,85,0.00,,---,0.00,VWS V14.01,2013-04-12 00:28:00,
2013-04-11 20:30:00,29.7,24.6,29.93,NNE,28,6.0,13.0,81,0.00,,---,0.00,VWS V14.01,2013-04-12 00:30:00,
2013-04-11 20:33:00,29.4,25.5,29.89,ENE,66,12.0,12.0,85,0.00,,---,0.00,VWS V14.01,2013-04-12 00:33:00,
2013-04-11 20:38:00,29.4,25.5,29.89,ENE,78,3.0,12.0,85,0.00,,---,0.00,VWS V14.01,2013-04-12 00:38:00,
2013-04-11 20:43:00,29.4,25.5,29.89,East,96,5.0,19.0,85,0.00,,---,0.00,VWS V14.01,2013-04-12 00:43:00,
2013-04-11 20:48:00,29.4,25.7,29.89,North,4,6.0,19.0,86,0.00,,---,0.00,VWS V14.01,2013-04-12 00:48:00,
2013-04-11 20:53:00,29.4,25.7,29.89,NE,56,2.0,19.0,86,0.00,,---,0.00,VWS V14.01,2013-04-12 00:53:00,
2013-04-11 20:58:00,29.4,25.7,29.89,NNE,21,2.0,19.0,86,0.00,,---,0.00,VWS V14.01,2013-04-12 00:58:00,
2013-04-11 21:00:00,29.3,25.1,29.90,North,7,7.0,17.0,84,0.00,,---,0.00,VWS V14.01,2013-04-12 01:00:00,
2013-04-11 21:03:00,29.4,25.7,29.87,North,0,6.0,10.0,86,0.00,,---,0.00,VWS V14.01,2013-04-12 01:03:00,
2013-04-11 21:08:00,29.4,25.7,29.87,ENE,75,11.0,12.0,86,0.00,,---,0.00,VWS V14.01,2013-04-12 01:08:00,
2013-04-11 21:13:00,29.5,25.6,29.87,ENE,76,11.0,16.0,85,0.00,,---,0.00,VWS V14.01,2013-04-12 01:13:00,
2013-04-11 21:18:00,29.5,25.6,29.87,East,100,5.0,16.0,85,0.00,,---,0.00,VWS V14.01,2013-04-12 01:18:00,
2013-04-11 21:23:00,29.7,25.8,29.87,South,182,1.0,16.0,85,0.00,,---,0.00,VWS V14.01,2013-04-12 01:23:00,
2013-04-11 21:28:00,29.7,25.8,29.87,ENE,68,5.0,16.0,85,0.00,,---,0.00,VWS V14.01,2013-04-12 01:28:00,
2013-04-11 21:30:00,29.3,25.4,29.89,SSE,161,7.0,18.0,85,0.00,,---,0.00,VWS V14.01,2013-04-12 01:30:00,
2013-04-11 21:33:00,29.7,25.8,29.88,East,85,6.0,11.0,85,0.00,,---,0.00,VWS V14.01,2013-04-12 01:33:00,
2013-04-11 21:38:00,29.7,25.8,29.88,ESE,114,11.0,12.0,85,0.00,,---,0.00,VWS V14.01,2013-04-12 01:38:00,
2013-04-11 21:43:00,29.7,25.8,29.88,ESE,116,8.0,16.0,85,0.00,,---,0.00,VWS V14.01,2013-04-12 01:43:00,
2013-04-11 21:48:00,29.5,25.6,29.85,ENE,66,2.0,17.0,85,0.00,,---,0.00,VWS V14.01,2013-04-12 01:48:00,
2013-04-11 21:53:00,29.5,25.6,29.85,East,89,6.0,17.0,85,0.00,,---,0.00,VWS V14.01,2013-04-12 01:53:00,
2013-04-11 21:58:00,29.7,25.8,29.85,ESE,119,0.0,17.0,85,0.00,,---,0.00,VWS V14.01,2013-04-12 01:58:00,
2013-04-11 22:00:00,29.4,25.7,29.87,East,79,10.0,19.0,86,0.00,,---,0.00,VWS V14.01,2013-04-12 02:00:00,
2013-04-11 22:03:00,29.5,25.6,29.86,NE,40,7.0,11.0,85,0.00,,---,0.00,VWS V14.01,2013-04-12 02:03:00,
2013-04-11 22:09:00,29.5,25.6,29.86,SE,138,10.0,12.0,85,0.00,,---,0.00,VWS V14.01,2013-04-12 02:09:00,
2013-04-11 22:14:00,29.5,25.6,29.86,North,8,11.0,16.0,85,0.00,,---,0.00,VWS V14.01,2013-04-12 02:14:00,
2013-04-11 22:19:00,29.5,25.8,29.87,North,3,4.0,16.0,86,0.00,,---,0.00,VWS V14.01,2013-04-12 02:19:00,
2013-04-11 22:24:00,29.7,25.8,29.87,NNE,30,6.0,19.0,85,0.00,,---,0.00,VWS V14.01,2013-04-12 02:24:00,
2013-04-11 22:29:00,29.7,25.8,29.87,NE,45,8.0,19.0,85,0.00,,---,0.00,VWS V14.01,2013-04-12 02:29:00,
2013-04-11 22:30:00,29.7,25.8,29.88,ESE,116,10.0,16.0,85,0.00,,---,0.00,VWS V14.01,2013-04-12 02:30:00,
2013-04-11 22:34:00,29.5,25.6,29.86,East,92,7.0,9.0,85,0.00,,---,0.00,VWS V14.01,2013-04-12 02:34:00,
2013-04-11 22:39:00,29.7,25.8,29.86,NE,51,8.0,10.0,85,0.00,,---,0.00,VWS V14.01,2013-04-12 02:39:00,
2013-04-11 22:44:00,29.7,25.8,29.86,ENE,66,2.0,12.0,85,0.00,,---,0.00,VWS V14.01,2013-04-12 02:44:00,
2013-04-11 22:49:00,29.8,25.9,29.87,ENE,68,8.0,17.0,85,0.00,,---,0.00,VWS V14.01,2013-04-12 02:49:00,
2013-04-11 22:54:00,29.7,25.8,29.87,East,90,11.0,17.0,85,0.00,,---,0.00,VWS V14.01,2013-04-12 02:54:00,
2013-04-11 22:59:00,29.8,25.9,29.87,East,79,1.0,17.0,85,0.00,,---,0.00,VWS V14.01,2013-04-12 02:59:00,
2013-04-11 23:00:00,29.5,25.6,29.86,East,97,3.0,17.0,85,0.00,,---,0.00,VWS V14.01,2013-04-12 03:00:00,
2013-04-11 23:04:00,29.7,25.8,29.86,East,93,3.0,12.0,85,0.00,,---,0.00,VWS V14.01,2013-04-12 03:04:00,
2013-04-11 23:09:00,29.5,25.8,29.86,NNE,32,11.0,12.0,86,0.00,,---,0.00,VWS V14.01,2013-04-12 03:09:00,
2013-04-11 23:14:00,29.7,25.8,29.86,ENE,66,5.0,14.0,85,0.00,,---,0.00,VWS V14.01,2013-04-12 03:14:00,
2013-04-11 23:19:00,29.5,25.8,29.86,NE,42,6.0,14.0,86,0.00,,---,0.00,VWS V14.01,2013-04-12 03:19:00,
2013-04-11 23:24:00,29.5,25.8,29.86,ESE,120,3.0,14.0,86,0.00,,---,0.00,VWS V14.01,2013-04-12 03:24:00,
2013-04-11 23:29:00,29.4,25.7,29.86,ENE,68,2.0,14.0,86,0.00,,---,0.00,VWS V14.01,2013-04-12 03:29:00,
2013-04-11 23:30:00,29.7,25.8,29.86,NE,47,2.0,19.0,85,0.00,,---,0.00,VWS V14.01,2013-04-12 03:30:00,
2013-04-11 23:34:00,29.4,26.0,29.84,North,11,11.0,13.0,87,0.00,,---,0.00,VWS V14.01,2013-04-12 03:34:00,
2013-04-11 23:39:00,29.4,25.7,29.84,NE,40,11.0,17.0,86,0.00,,---,0.00,VWS V14.01,2013-04-12 03:39:00,
2013-04-11 23:44:00,29.4,25.7,29.84,NNE,24,2.0,17.0,86,0.00,,---,0.00,VWS V14.01,2013-04-12 03:44:00,
2013-04-11 23:49:00,29.3,25.9,29.82,NNW,339,5.0,17.0,87,0.00,,---,0.00,VWS V14.01,2013-04-12 03:49:00,
2013-04-11 23:54:00,29.3,25.9,29.82,NNE,18,5.0,17.0,87,0.00,,---,0.00,VWS V14.01,2013-04-12 03:54:00,
2013-04-11 23:59:00,29.3,25.9,29.82,NE,51,6.0,17.0,87,0.00,,---,0.00,VWS V14.01,2013-04-12 03:59:00,